Worcester, MA

5:05 PM EDT on April 25, 2018 (GMT -0400)
Worcester Regional

Weather History for KORH - June, 2013

Change the Weather History Date:

Friday, June 7, 2013

  Actual Average Record
Temperature  
Mean Temperature 53 °F 63 °F  
Max Temperature 56 °F 72 °F 94 °F (1925)
Min Temperature 50 °F 54 °F 40 °F (1958)
Degree Days  
Heating Degree Days 12 4  
Month to date heating degree days 27 33  
Since 1 June heating degree days 27 33  
Since 1 July heating degree days 6239 6667  
Cooling Degree Days 0 2  
Month to date cooling degree days 23 11  
Year to date cooling degree days 47 33  
Since 1 June cooling degree days 23 11  
Growing Degree Days 2 (Base 50)    
Moisture  
Dew Point 53 °F    
Average Humidity 97    
Maximum Humidity 100    
Minimum Humidity 93    
Precipitation  
Precipitation 2.68 in 0.15 in 2.68 in (2013)
Month to date precipitation 3.58 1.09  
Year to date precipitation 20.39 20.32  
Snow  
Snow 0.00 in 0.00 in 0.00 in (2001)
Month to date snowfall 0.0 0.0  
Since 1 June snowfall 0.0 0.0  
Since 1 July snowfall 108.9 64.1  
Snow Depth -    
Sea Level Pressure  
Sea Level Pressure 30.00 in    
Wind  
Wind Speed 10 mph (ENE)    
Max Wind Speed 18 mph    
Max Gust Speed 27 mph    
Visibility 5 miles    
Events Fog , Rain    
T = Trace of Precipitation, MM = Missing Value Source: NWS Daily Summary

Daily Weather History Graph

Daily Weather History Graph

Search for Another Location

Airport or City:

Astronomy

Jun. 07, 2013 Rise Set
Actual Time 5:11 AM EDT 8:21 PM EDT
Civil Twilight 4:37 AM EDT 8:56 PM EDT
Nautical Twilight 3:53 AM EDT 9:40 PM EDT
Astronomical Twilight 3:00 AM EDT 10:33 PM EDT
Moon 4:33 AM EDT (6/7) 7:32 PM EDT (6/7)
Length of Visible Light 16h 19m
Length of Day
15h 10m
Waning Crescent, 1% of the Moon is Illuminated
Jun 7
Waning Crescent
Jun 8
New
Jun 16
First Quarter
Jun 23
Full
Jun 30
Last Quarter

Hourly Weather History & Observations

Time (EDT) Temp. Dew Point Humidity Pressure Visibility Wind Dir Wind Speed Gust Speed Precip Events Conditions
12:54 AM 54.0 °F 53.1 °F 97% 30.09 in 10.0 mi East 3.5 mph - 0.03 in Rain Light Rain
1:54 AM 54.0 °F 54.0 °F 100% 30.07 in 7.0 mi ENE 8.1 mph - 0.01 in Rain Light Rain
2:54 AM 54.0 °F 53.1 °F 97% 30.05 in 10.0 mi East 5.8 mph - 0.02 in   Overcast
3:47 AM 54.0 °F 54.0 °F 100% 30.05 in 10.0 mi ESE 4.6 mph - N/A   Overcast
3:54 AM 54.0 °F 54.0 °F 100% 30.05 in 10.0 mi ESE 4.6 mph - N/A   Overcast
4:18 AM 54.0 °F 53.1 °F 97% 30.04 in 10.0 mi East 6.9 mph - N/A   Overcast
4:25 AM 54.0 °F 53.1 °F 97% 30.04 in 10.0 mi East 5.8 mph - N/A   Overcast
4:34 AM 53.1 °F 53.1 °F 100% 30.05 in 10.0 mi ESE 4.6 mph - N/A   Overcast
4:54 AM 53.1 °F 52.0 °F 96% 30.05 in 10.0 mi ESE 4.6 mph - N/A   Overcast
5:15 AM 53.1 °F 52.0 °F 96% 30.04 in 10.0 mi East 4.6 mph - N/A   Overcast
5:54 AM 53.1 °F 52.0 °F 96% 30.05 in 10.0 mi East 5.8 mph - 0.00 in   Overcast
6:03 AM 53.1 °F 52.0 °F 96% 30.04 in 10.0 mi East 5.8 mph - N/A   Overcast
6:54 AM 53.1 °F 51.1 °F 93% 30.05 in 10.0 mi East 6.9 mph - 0.00 in Rain Light Rain
7:54 AM 53.1 °F 52.0 °F 96% 30.04 in 8.0 mi ENE 5.8 mph - 0.02 in Rain Light Rain
8:12 AM 53.1 °F 52.0 °F 96% 30.04 in 10.0 mi ENE 8.1 mph - 0.01 in Rain Light Rain
8:25 AM 53.1 °F 52.0 °F 96% 30.04 in 10.0 mi NE 9.2 mph - 0.02 in Rain Light Rain
8:34 AM 53.1 °F 52.0 °F 96% 30.04 in 7.0 mi NE 10.4 mph - 0.02 in Rain Light Rain
8:54 AM 52.0 °F 50.0 °F 93% 30.05 in 7.0 mi ENE 9.2 mph - 0.03 in Rain Light Rain
9:20 AM 52.0 °F 52.0 °F 100% 30.04 in 1.0 mi ENE 9.2 mph - 0.02 in Rain Light Rain
9:54 AM 52.0 °F 52.0 °F 100% 30.05 in 1.0 mi ENE 6.9 mph - 0.04 in Rain Light Rain
10:04 AM 52.0 °F 52.0 °F 100% 30.03 in 0.5 mi NE 8.1 mph - 0.00 in Rain Light Rain
10:22 AM 52.0 °F 52.0 °F 100% 30.03 in 0.2 mi ENE 6.9 mph - 0.01 in Fog , Rain Rain
10:54 AM 52.0 °F 52.0 °F 100% 30.05 in 0.2 mi ENE 10.4 mph - 0.08 in Fog , Rain Rain
11:49 AM 53.6 °F 53.6 °F 100% 30.03 in 0.5 mi ENE 8.1 mph - 0.13 in Rain Rain
11:54 AM 53.1 °F 53.1 °F 100% 30.04 in 0.5 mi ENE 10.4 mph - 0.14 in Rain Rain
12:54 PM 54.0 °F 54.0 °F 100% 30.03 in 0.5 mi ENE 6.9 mph - 0.09 in Rain Rain
1:54 PM 55.0 °F 55.0 °F 100% 30.01 in 0.2 mi ENE 9.2 mph - 0.06 in Fog , Rain Rain
2:54 PM 55.9 °F 55.9 °F 100% 29.99 in 0.2 mi ENE 11.5 mph 20.7 mph 0.17 in Rain Heavy Rain
3:54 PM 55.0 °F 55.0 °F 100% 29.97 in 1.5 mi ENE 10.4 mph 20.7 mph 0.33 in Rain Rain
4:54 PM 54.0 °F 54.0 °F 100% 29.97 in 0.8 mi ENE 10.4 mph 17.3 mph 0.17 in Rain Rain
5:28 PM 54.0 °F 54.0 °F 100% 29.95 in 2.0 mi ENE 13.8 mph - 0.05 in Rain Light Rain
5:37 PM 54.0 °F 53.1 °F 97% 29.95 in 1.0 mi East 13.8 mph 23.0 mph 0.06 in Rain Light Rain
5:44 PM 53.1 °F 53.1 °F 100% 29.95 in 2.0 mi East 15.0 mph 24.2 mph 0.07 in Rain Light Rain
5:54 PM 53.1 °F 53.1 °F 100% 29.95 in 2.0 mi ENE 15.0 mph - 0.07 in Rain Light Rain
6:15 PM 53.1 °F 53.1 °F 100% 29.94 in 0.5 mi ENE 13.8 mph 21.9 mph 0.04 in Rain Rain
6:54 PM 53.1 °F 53.1 °F 100% 29.94 in 0.5 mi ENE 13.8 mph 21.9 mph 0.14 in Rain Rain
7:54 PM 51.1 °F 51.1 °F 100% 29.90 in 0.5 mi ENE 15.0 mph 24.2 mph 0.08 in Rain Rain
8:54 PM 51.1 °F 51.1 °F 100% 29.90 in 0.5 mi ENE 15.0 mph 24.2 mph 0.38 in Rain Heavy Rain
9:54 PM 50.0 °F 50.0 °F 100% 29.88 in 0.5 mi NE 10.4 mph 19.6 mph 0.20 in Rain Light Rain
10:54 PM 50.0 °F 50.0 °F 100% 29.85 in 0.5 mi NE 11.5 mph - 0.04 in Rain Heavy Rain
11:54 PM 50.0 °F 50.0 °F 100% 29.82 in 0.5 mi NNE 11.5 mph 23.0 mph 0.20 in Rain Heavy Rain